{"data":{"norad_id":63069,"intl_designator":"2025-035T","name":"STARLINK-33620","alt_names":[],"object_type":"PAYLOAD","status":"ACTIVE","operator":null,"country":"US","launch_date":"2025-02-21","launch_site_code":"AFETR","launch_vehicle":null,"mission":null,"orbit_class":"UNKNOWN","rcs_meters":null,"size_class":null,"mass_kg":null,"dimensions":null,"purposes":["comms"],"wikipedia_slug":null,"has_3d_model":false,"image_url":null,"decayed_at":null,"tle_current":{"epoch":"2026-09-21T00:41:26.656800Z","epoch_age_seconds":116636,"freshness":"FRESH","line1":"1 63069U 25035T   26264.02878075  .00010394  00000+0  38667-3 0  9995","line2":"2 63069  42.9986 123.9594 0000416 214.8012 145.2813 15.27581783 89598","mean_motion":15.27581783,"eccentricity":4.16e-5,"inclination_deg":42.9986,"raan_deg":123.9594,"arg_perigee_deg":214.8012,"mean_anomaly_deg":145.2813,"bstar":0.00038667,"rev_number":8959,"period_min":94.266638685099,"perigee_km":482.75833198192,"apogee_km":483.32918222091,"semimajor_km":6861.1807571014,"source":"CELESTRAK","updated_at":"2026-09-22T09:00:49.754446Z"}}}